LPPTLPMR

Guest
Details From LPPT - Lisboa
To LPMR - MONTE REAL
Flight Number -
Tags generated
Created
Modified
Stats Distance 65 nm / 120 km
Max Altitude 2,300 ft / 701 m
Waypoints 3
Social Downloads 0
Likes 0
Share VATSIM

Download

Looking for another format? Having issues loading an existing format? Contact us
Advertisement - Login to hide

Notes

Basic altitude profile: - Ascent Rate: 1500ft/min - Ascent Speed: 190kts - Cruise Altitude: 25000ft - Cruise Speed: 250kts - Descent Rate: 1500ft/min - Descent Speed: 190kts Options: - Use NATs: yes - Use PACOTS: yes - Use low airways: yes - Use high airways: yes

Route

LPPT LISGU LPMR

ID Type Via Altitude Latitude Longitude Leg Dist Tot Dist Heading (true) Name
O LPPT APT - 0 ft / 0 m 38.77856˚ -9.13515˚ - 0 nm - Lisboa
LISGU FIX - 2,300 ft / 701 m 38.88778˚ -9.16278˚ 6 nm 6 nm 349° / 349° -
O LPMR APT - 0 ft / 0 m 39.83124˚ -8.88726˚ 58 nm 64 nm 13° / 13° MONTE REAL

Altitude Profile

Advertisement - Login to hide

LPPT

Details ICAO LPPT (LIS)
Name Lisboa
Region Portugal
Timezone Europe/Lisbon (UTC+0.0)
Stats Elevation 374 ft / 114 m (AMSL)
Location 38.778559° -9.135146°
Runways 2
Magnetic Variation 2.364° W

METAR

LPPT 161100Z 36009KT CAVOK 12/04 Q1024

Decode

TAF

TAF LPPT 160500Z 1606/1712 34010KT CAVOK BECMG 1609/1612 03008KT BECMG 1616/1619 34008KT BECMG 1700/1702 03008KT

Decode

Departure Runways

ID Width Length Bearing (true) Bearing (mag) Surface Threshold Offset Overrun Length
03 148 ft / 45 m 12,518 ft / 3,815 m 22.70° 25.06° Asphalt 296 ft / 90 m 0 ft / 0 m
17 148 ft / 45 m 7,922 ft / 2,415 m 168.38° 170.74° Asphalt 0 ft / 0 m 0 ft / 0 m
21 148 ft / 45 m 12,518 ft / 3,815 m 202.72° 205.08° Asphalt 1,969 ft / 600 m 0 ft / 0 m
35 148 ft / 45 m 7,922 ft / 2,415 m 348.38° 350.74° Asphalt 492 ft / 150 m 0 ft / 0 m

LPMR

Details ICAO LPMR
Name MONTE REAL
Region Portugal
Timezone Europe/Lisbon (UTC+0.0)
Stats Elevation 187 ft / 57 m (AMSL)
Location 39.831239° -8.887258°
Runways 1
Magnetic Variation 2.327° W

METAR

LPMR 161100Z VRB01KT CAVOK 09/07 Q1025

Decode

TAF

Not found

Destination Runways

ID Width Length Bearing (true) Bearing (mag) Surface Threshold Offset Overrun Length
01 148 ft / 45 m 9,833 ft / 2,997 m 1.73° 4.06° Concrete 886 ft / 270 m 0 ft / 0 m
19 148 ft / 45 m 9,833 ft / 2,997 m 181.73° 184.06° Concrete 863 ft / 263 m 0 ft / 0 m

Approach Navaids

Runway Type Ident Frequency Range Bearing (true) Bearing (mag) Slope Elevation
19 Localiser MR 110.30 MHz 18 nm / 33 km 181.74° 184.07° - 187 ft / 57 m (AMSL)
19 Glidescope MR 110.30 MHz 10 nm / 19 km 181.73° 184.06° 2.50° 187 ft / 57 m (AMSL)

Popular Alternatives